Tracking 28766 objects as of 14-Apr-2024
HD Live streaming from Space Station
objects crossing your sky now

ONEWEB-0177

Track ONEWEB-0177 now!
10-day predictions
ONEWEB-0177 is classified as:


NORAD ID: 48074
Int'l Code: 2021-025AJ
Perigee: 1,215.1 km
Apogee: 1,218.7 km
Inclination: 87.9 °
Period: 109.6 minutes
Semi major axis: 7587 km
RCS: Unknown
Launch date: March 25, 2021
Source: United States (US)
Launch site: VOSTOCHNY COSMODROME (VOSTO)
Your satellite tracking list
Your tracking list is empty




NASA's NSSDC Master Catalog

Two Line Element Set (TLE):
1 48074U 21025AJ  24104.56532492  .00000318  00000-0  83524-3 0  9997
2 48074  87.8890 118.4096 0002414  96.9500 263.1904 13.13471522149361
Source of the keplerian elements: AFSPC